Regional Weather Roundup
Issued by NWS

Home | Current Version | Previous Version | Text Only | Print | Product List | Glossary On
Versions: 1 2 3 4 5 6 7 8 9 10 11 12 13 14 15 16 17 18 19 20 21 22 23 24 25 26 27 28 29 30 31 32 33 34 35 36 37 38 39 40 41 42 43 44 45 46 47 48 49 50
117
ASUS44 KLIX 281110
RWRLA
LOUISIANA WEATHER ROUNDUP
NATIONAL WEATHER SERVICE NEW ORLEANS LA
500 AM CST SAT FEB 28 2015

NOTE: "FAIR" INDICATES FEW OR NO CLOUDS BELOW 12,000 FEET WITH NO
      SIGNIFICANT WEATHER AND/OR OBSTRUCTIONS TO VISIBILITY.
      SKY/WX - SKY CONDITION AND SIGNIFICANT WEATHER.
      TMP - AIR TEMPERATURE.    DP   - DEWPOINT TEMPERATURE.
      RH  - RELATIVE HUMIDITY.  PRES - PRESSURE.
      HX  - HEAT INDEX.         WCI  - WIND CHILL INDEX.

*  THESE STATIONS ARE NOT NWS OR FAA STATIONS AND ARE NOT UNDER
   NWS QUALITY CONTROL.

LAZ040-048-061>063-065-066-069-281200-
SOUTHEAST LOUISIANA

CITY           SKY/WX    TMP DP  RH WIND       PRES   REMARKS
N.O. AUDUBON     N/A     44  33  65 MISG        N/A
N.O. INTL ARPT MOCLDY    42  30  62 NE15      30.38R
N.O. LAKEFRONT PTCLDY    45  31  58 NE17      30.39R
SLIDELL        PTCLDY    36  27  69 NE8       30.39R WCI  30
BATON ROUGE    PTCLDY    34  27  75 NE13      30.39S WCI  25
BOOTHVILLE     CLOUDY    50  42  74 NE12      30.35R
BELLE CHASSE   PTCLDY    43  29  57 NE9       30.37R
BOGALUSA*        N/A     36  26  68 NE5       30.44R WCI  32
GALLIANO*      PTSUNNY   46  37  70 MISG      30.36R
NEW ROADS*     FAIR      34  25  69 NE13G20   30.38F WCI  25
GONZALES*      FAIR      36  29  76 NE7       30.38S WCI  30
HAMMOND*       CLEAR     36  25  64 NE3       30.41S
HOUMA*         CLOUDY    42  33  68 NE10      30.35S
PORT FOURCHON* PTSUNNY   48  39  71 NE15G21   30.37R

$$

LAZ041-044-053-054-281200-
SOUTHWEST LOUISIANA

CITY           SKY/WX    TMP DP  RH WIND       PRES   REMARKS
LAKE CHARLES   CLOUDY    37  29  72 E16       30.35R WCI  28
LAFAYETTE      PTCLDY    35  28  75 NE9       30.36R WCI  28
PATTERSON      FAIR      39  30  70 NE15      30.34S WCI  31
SALT POINT       N/A     39  32  76 VRB6      30.31S WCI  35
NEW IBERIA     CLEAR     37  29  72 NE7       30.36R WCI  32
CHENAULT AIRPK NOT AVBL

$$

LAZ027-028-281200-
CENTRAL LOUISIANA

CITY           SKY/WX    TMP DP  RH WIND       PRES   REMARKS
FORT POLK      CLOUDY    35  26  69 E10       30.35S WCI  27
ALEXANDRIA INT CLOUDY    33  26  75 E7        30.38S WCI  27
ALEXANDRIA     PTCLDY    33  25  72 E8        30.39S WCI  26

$$

LAZ001-002-281200-
NORTHWEST LOUISIANA

CITY           SKY/WX    TMP DP  RH WIND       PRES   REMARKS
SHREVEPORT     MOCLDY    31  23  72 NE9       30.41R WCI  23
BARKSDALE AFB  PTCLDY    30  21  70 NE5       30.42R WCI  25
DTN SHREVEPORT MOCLDY    30  20  66 NE6       30.43R WCI  24

$$

LAZ014-016-281200-
NORTHEAST LOUISIANA

CITY           SKY/WX    TMP DP  RH WIND       PRES   REMARKS
MONROE         CLOUDY    31  26  82 NE9       30.45F WCI  23
TALLULAH       MOCLDY    34  27  75 NE7       30.45F WCI  28

$$




USA.gov is the U.S. government's official web portal to all federal, state and local government web resources and services.